Location: Treviso
(45.6669°N, 12.2430°E)
Time: 04:24:19
(UTC+02:00)

ITUPSAT 1 - Visible Passes

Search period start: 18 October 2019 00:00
Search period end: 27 October 2019 23:00
Orbit: 701 x 713 km, 98.6° (Epoch: 17 October)

Date Brightness Start Highest point End Pass type
(mag) Time Alt. Az. Time Alt. Az. Time Alt. Az.
18 Oct ? 05:10:11 10° SE 05:14:49 51° ENE 05:19:28 10° N visible
18 Oct ? 06:49:25 10° SW 06:52:54 20° W 06:56:24 10° NW visible
18 Oct ? 18:45:37 10° NNE 18:50:25 87° ESE 18:55:10 10° SSW visible
18 Oct ? 20:25:15 10° NNW 20:27:32 14° WNW 20:29:48 10° W visible
19 Oct ? 04:18:30 10° ESE 04:21:45 18° ENE 04:24:58 10° NNE visible
19 Oct ? 05:54:20 10° S 05:59:04 62° WSW 06:03:50 10° NNW visible
19 Oct ? 19:30:12 10° N 19:34:34 37° WNW 19:38:55 10° SW visible
20 Oct ? 05:01:09 10° SE 05:05:40 42° ENE 05:10:10 10° N visible
20 Oct ? 06:39:44 10° SSW 06:43:36 24° W 06:47:30 10° NW visible
20 Oct ? 20:15:34 10° NNW 20:18:27 16° WNW 20:21:20 10° W visible
21 Oct ? 04:09:56 10° E 04:12:39 15° ENE 04:15:23 10° NNE visible
21 Oct ? 05:45:03 10° S 05:49:51 77° WSW 05:54:40 10° NNW visible
21 Oct ? 19:20:53 10° N 19:25:25 45° WNW 19:29:56 10° SW visible
22 Oct ? 04:52:11 10° SE 04:56:30 35° ENE 05:00:50 10° N visible
22 Oct ? 06:30:09 10° SSW 06:34:19 29° W 06:38:31 10° NW visible
22 Oct ? 20:06:00 10° NNW 20:09:21 19° WNW 20:12:41 10° WSW visible
23 Oct ? 04:01:32 10° E 04:03:34 13° ENE 04:05:37 10° NNE visible
23 Oct ? 05:35:51 10° SSE 05:40:38 87° ENE 05:45:28 10° NNW visible
23 Oct ? 19:11:35 10° N 19:16:15 55° WNW 19:20:53 10° SSW visible
24 Oct ? 04:43:17 10° ESE 04:47:22 29° ENE 04:51:28 10° N visible
24 Oct ? 06:20:39 10° SSW 06:25:03 36° W 06:29:28 10° NNW visible
24 Oct ? 19:56:32 10° NNW 20:00:15 23° WNW 20:03:57 10° WSW visible
25 Oct ? 03:53:39 10° ENE 03:54:31 10° NE 03:55:22 10° NE visible
25 Oct ? 05:26:41 10° SSE 05:31:26 72° ENE 05:36:13 10° N visible
25 Oct ? 07:07:13 10° WSW 07:09:45 14° W 07:12:17 10° WNW visible
25 Oct ? 19:02:19 10° N 19:07:04 68° WNW 19:11:46 10° SSW visible
26 Oct ? 04:34:26 10° ESE 04:38:14 24° ENE 04:42:03 10° N visible
26 Oct ? 06:11:14 10° S 06:15:47 44° W 06:20:23 10° NNW visible
26 Oct ? 19:47:07 10° N 19:51:07 27° WNW 19:55:07 10° WSW visible
27 Oct ? 04:17:34 10° SSE 04:22:15 58° ENE 04:26:58 10° N visible
27 Oct ? 05:57:16 10° SW 06:00:26 17° W 06:03:36 10° NW visible
27 Oct ? 17:53:05 10° NNE 17:57:52 84° WNW 18:02:36 10° SSW visible
27 Oct ? 19:33:07 10° NW 19:34:54 12° NW 19:36:40 10° WNW visible
